Location: Shenandoah County Park
(38.9356°N, 78.4524°W)
Time: 05:39:32
(UTC-04:00)

Transit 2A - Pass Details

Date: 16 June 2024
Orbit: 591 x 960 km, 66.7° (Epoch: 23 July)

Event Time Altitude Azimuth Distance (km) Brightness Sun altitude
Rises 01:43:21 0° 339° (NNW) 3,507 10.3 -27.3°
Reaches altitude 10° 01:46:08 10° 350° (N) 2,610 9.6 -27.3°
Maximum altitude 01:51:30 31° 51° (NE) 1,611 8.0 -27.1°
Drops below altitude 10° 01:57:01 10° 111° (ESE) 2,688 8.7 -26.9°
Enters shadow 01:57:29 - 114° (ESE) 2,833 8.8 -26.9°
